Location: Ernsee
(50.8780°N, 12.0389°E)
Time: 22:35:23
(UTC+00:00)

STARLINK-27 - Pass Details

Date: 20 January 2020
Orbit: 528 x 531 km, 53.0° (Epoch: 17 February)

Event Time Altitude Azimuth Distance (km) Brightness Sun altitude
Rises 06:02:38 0° 235° (SW) 2,661 6.8 -9.5°
Reaches altitude 10° 06:04:51 10° 231° (SW) 1,774 5.9 -9.2°
Maximum altitude 06:08:48 58° 153° (SSE) 622 4.2 -8.6°
Drops below altitude 10° 06:12:47 10° 73° (ENE) 1,784 7.1 -8.0°
Sets 06:15:02 0° 70° (ENE) 2,677 7.9 -7.7°
